Regional Weather Roundup
Issued by NWS Kansas City/Pleasant Hill, MO

Home | Current Version | Previous Version | Text Only | Print | Product List | Glossary On
Versions: 1 2 3 4 5 6 7 8 9 10 11 12 13 14 15 16 17 18 19 20 21 22 23 24 25 26 27 28 29 30 31 32 33 34 35 36 37 38 39 40 41 42 43 44 45 46 47 48 49 50
144
ASUS43 KEAX 300910
RWREAX

WEATHER ROUNDUP FOR EASTERN KANSAS AND NORTHWEST MISSOURI
NATIONAL WEATHER SERVICE KANSAS CITY/PLEASANT HILL MO
400 AM CDT SAT JUL 30 2016

KSZ040-057-103>105-MOZ028-029-037-043-301000-
...KANSAS CITY METROPOLITAN AREA...

CITY           SKY/WX    TMP DP  RH WIND       PRES   REMARKS
K.C. INTL      CLEAR     64  60  87 NW3       30.01S
K.C. DOWNTOWN  CLEAR     69  63  81 N3        30.00R
LEES SUMMIT    CLEAR     68  63  84 N3        30.01S
OLATHE - IXD   CLEAR     66  63  90 NE3       30.01S
OLATHE - OJC   CLEAR     67  62  84 CALM      30.01S
LAWRENCE       CLOUDY    65  61  87 CALM      30.00S

$$

MOZ001>008-011>017-020>025-030>033-038>040-044>046-053-054-301000-
...NORTHERN AND CENTRAL MISSOURI...

CITY           SKY/WX    TMP DP  RH WIND       PRES   REMARKS
ST. JOSEPH     CLEAR     61  60  97 W5        30.01S
MOSBY          SUNNY     63  63 100 CALM      30.00S
WHITEMAN AFB   CLEAR     65  65 100 N5        29.97F
CLINTON        PTCLDY    66  66 100 CALM      29.99R FOG
SEDALIA        CLEAR     67  64  90 NW5       29.99S
WARSAW         NOT AVBL
CHILLICOTHE      N/A     64  62  93 CALM      30.00F
KIRKSVILLE     CLOUDY    65  64  97 NW3       29.99S

$$

MOZ041-047>049-056>058-063>065-088>090-097-301000-
...EASTERN AND SOUTHERN MISSOURI...

CITY           SKY/WX    TMP DP  RH WIND       PRES   REMARKS
ST. LOUIS INTL PTCLDY    73  67  81 NW3       29.96R
SPIRIT OF STL  CLEAR     68  68 100 CALM      29.94S
COLUMBIA       PTCLDY    66  64  93 N3        29.98R
JEFFERSON CITY CLEAR     67  65  93 CALM      29.96S
ROLLA          CLEAR     67  66  97 CALM      29.97S
OSAGE BEACH    FOG       68  66  94 CALM      29.99R VSB 1/4
SPRINGFIELD    CLEAR     70  67  90 CALM      29.98F
BRANSON        FOG       70  70 100 CALM      30.00S VSB<1/4
JOPLIN         PTCLDY    71  69  93 CALM      29.99S
WEST PLAINS    CLOUDY    69  66  90 W3        30.00F

$$

IAZ060-094-KSZ022-034>040-054-083-096-NEZ052-066-093-301000-
...KANSAS...SOUTHEAST NEBRASKA AND IOWA...

CITY           SKY/WX    TMP DP  RH WIND       PRES   REMARKS
TOPEKA         PTCLDY    66  64  93 CALM      30.01S
MANHATTAN      PTCLDY    67  64  90 CALM      30.00F
EMPORIA        PTCLDY    68  67  96 CALM      30.00F
CHANUTE        CLOUDY    71  69  93 CALM      29.99S
WICHITA        PTCLDY    73  69  87 CALM      29.99F
OMAHA          PTCLDY    62  60  93 CALM      30.02S
LINCOLN        PTCLDY    63  61  93 N3        30.04S
FALLS CITY     PTCLDY    62  61  96 W3        30.01S FOG
LAMONI         PTCLDY    61  61 100 NW6       30.01S
DES MOINES     CLOUDY    67  64  90 NW3       29.99S

$$





USA.gov is the U.S. government's official web portal to all federal, state and local government web resources and services.